DateTimeUTC,F1_A11,F1_S11,BsB_S11,BsG_S11,BsR_S11,BbsB_S11,BbsG_S11,BbsR_S11,BaB_A11,BaG_A11,BaR_A11,Tu_S11,T_S11,Uu_S11,U_S11,P_S11,T1_A11
2021-01-25T13:00:00Z,00000200,21000000,,,,,,,0000.19,0000.07,-000.04,14.5,22.1,,00.0,0646.8,30.8
2021-01-25T13:01:00Z,00000200,21000000,,,,,,,-000.16,-000.42,-000.11,14.5,22.1,,00.0,0646.7,30.8
2021-01-25T13:02:00Z,00000200,21000000,,,,,,,0000.07,0000.67,0000.56,14.5,22.2,,00.0,0646.7,30.8
2021-01-25T13:03:00Z,00000200,61000000,,,,,,,0000.46,-000.12,0000.18,14.5,22.2,,00.0,0646.7,30.8
2021-01-25T13:04:00Z,00000200,41000000,0001.07,0000.30,0000.25,0000.25,0000.35,0000.20,0000.35,0000.61,0000.05,14.9,22.0,,00.0,0647.3,30.8
2021-01-25T13:05:00Z,00000200,01000000,0000.13,-000.04,0000.11,0000.16,0000.20,0000.10,0000.05,0000.21,-000.09,14.9,21.9,,00.0,0647.3,30.8
2021-01-25T13:06:00Z,00000200,01000000,0000.27,0000.01,-000.07,-000.08,0000.25,-000.24,0000.44,0000.20,0000.33,15.0,21.9,,00.0,0647.4,30.8
2021-01-25T13:07:00Z,00000200,01000000,0000.38,0000.01,-000.30,0000.22,0000.12,-000.11,-000.14,-000.20,0000.20,15.0,21.9,,00.0,0647.3,30.8
2021-01-25T13:08:00Z,00000200,01000000,0000.20,-000.06,-000.16,-000.05,0000.23,0000.12,0000.15,-000.06,-000.06,15.0,21.9,,00.0,0647.4,30.8
2021-01-25T13:09:00Z,00000200,01000000,0000.37,0000.22,0000.24,-000.18,0000.35,-000.01,0000.12,0000.56,0000.10,15.0,21.9,,00.0,0647.4,30.8
2021-01-25T13:10:00Z,00000200,01000000,0000.42,0000.04,-000.31,-000.73,0000.27,0000.08,0000.21,0000.10,-000.15,15.1,21.9,,00.0,0647.4,30.8
2021-01-25T13:11:00Z,00000200,01000000,-000.16,-000.05,0000.07,0000.67,0000.17,0000.09,-000.52,-000.42,0000.02,15.0,21.9,,00.0,0647.4,30.8
2021-01-25T13:12:00Z,00000200,01000000,0000.07,0000.16,-000.06,-000.06,0000.16,0000.14,0000.17,-000.10,-000.15,15.0,21.8,,00.0,0647.5,30.8
2021-01-25T13:13:00Z,00000200,01000000,-000.20,-000.08,0000.06,-000.30,0000.01,0000.08,0000.32,0000.37,0000.06,15.0,21.9,,00.0,0647.5,30.8
2021-01-25T13:14:00Z,00000200,01000000,-000.06,0000.26,0000.04,-000.54,0000.18,0000.40,0000.32,0000.11,0000.35,15.1,21.9,,00.0,0647.6,30.8
2021-01-25T13:15:00Z,00000200,01000000,-000.08,0000.16,0000.06,-000.50,0000.09,0000.01,-000.22,-000.36,-000.31,15.0,21.9,,00.0,0647.8,30.8
2021-01-25T13:16:00Z,00000200,01000000,-000.18,0000.19,0000.02,-000.12,0000.14,0000.00,-000.37,-000.20,-000.16,15.0,21.9,,00.0,0647.8,30.8
2021-01-25T13:17:00Z,00000200,01000000,0000.16,-000.04,-000.20,-000.07,0000.07,0000.01,-000.06,0000.22,0000.19,15.1,21.9,,00.0,0647.7,30.8
2021-01-25T13:18:00Z,00000200,01000000,0000.31,0000.46,0000.10,-000.40,0000.23,0000.30,0000.73,0000.73,0000.78,15.1,21.9,,00.0,0647.5,30.8
2021-01-25T13:19:00Z,00000200,01000000,0000.00,0000.08,-000.05,0000.36,0000.35,0000.08,0000.80,0000.90,0000.15,15.1,21.9,,00.0,0647.3,30.8
2021-01-25T13:20:00Z,00000200,01000000,0000.12,0000.19,-000.02,-000.10,0000.42,-000.03,0000.72,0000.63,0000.55,15.1,21.9,,00.0,0647.2,30.8
2021-01-25T13:21:00Z,00000200,01000000,0000.73,-000.05,-000.31,0000.03,0000.20,0000.08,0000.64,0000.20,0000.33,15.2,21.9,,00.0,0647.1,30.8
2021-01-25T13:22:00Z,00000200,01000000,0000.20,0000.12,-000.07,-000.01,0000.23,-000.05,0000.70,0000.44,0000.10,15.2,21.9,,00.0,0646.9,30.8
2021-01-25T13:23:00Z,00000200,01000000,-000.02,0000.21,-000.11,-000.20,0000.04,0000.03,0000.29,0000.56,0000.04,15.2,21.9,,00.0,0646.8,30.8
2021-01-25T13:24:00Z,00000200,01000000,0000.26,-000.28,-000.14,-000.31,-000.04,-000.02,0000.57,0000.60,0000.78,15.2,21.9,,00.0,0646.7,30.8
2021-01-25T13:25:00Z,00000200,01000000,-000.17,-000.12,-000.11,0000.10,0000.17,-000.09,0000.84,0000.48,0000.07,15.2,21.9,,00.0,0646.7,30.8
2021-01-25T13:26:00Z,00000200,01000000,0000.42,-000.01,-000.28,-000.18,0000.42,-000.09,-000.20,0000.26,0000.23,15.1,21.9,,00.0,0646.6,30.8
2021-01-25T13:27:00Z,00000200,01000000,0000.08,-000.01,-000.28,-000.16,0000.06,0000.16,0000.10,-000.05,0000.39,15.1,21.8,,00.0,0646.7,30.8
2021-01-25T13:28:00Z,00000200,01000000,0000.10,0000.04,-000.18,0000.06,0000.14,-000.03,0000.22,-000.28,-000.44,15.0,21.8,,00.0,0646.8,30.8
2021-01-25T13:29:00Z,00000200,01000000,0000.43,0000.08,-000.25,-000.52,0000.21,-000.05,-000.25,-000.20,-000.11,15.0,21.8,,00.0,0646.9,30.8
2021-01-25T13:30:00Z,00000200,01000000,0000.45,-000.15,-000.09,-000.22,0000.02,0000.13,-000.36,-000.12,-000.21,15.1,21.8,,00.0,0646.9,30.8
2021-01-25T13:31:00Z,00000200,01000000,0000.35,-000.08,0000.10,-000.16,0000.30,0000.32,-000.06,0000.24,0000.28,15.1,21.8,,00.0,0646.9,30.8
2021-01-25T13:32:00Z,00000200,01000000,0000.69,0000.17,-000.16,0000.10,0000.08,-000.09,0000.40,0000.03,-000.04,15.1,21.8,,00.0,0646.8,30.8
2021-01-25T13:33:00Z,00000200,01000000,0000.29,0000.26,-000.03,-000.35,0000.12,-000.09,0000.52,0000.57,0000.27,15.1,21.8,,00.0,0646.8,30.8
2021-01-25T13:34:00Z,00000200,01000000,-000.18,0000.09,-000.14,-000.25,0000.24,-000.03,0000.67,0000.65,0000.60,15.2,21.9,,00.0,0646.7,30.8
2021-01-25T13:35:00Z,00000200,01000000,-000.18,-000.13,-000.15,-000.48,0000.01,0000.25,0000.37,0000.26,0000.23,15.2,21.9,,00.0,0646.6,30.8
2021-01-25T13:36:00Z,00000200,01000000,0000.45,0000.02,0000.20,0000.07,0000.23,0000.17,0000.85,0000.94,0000.42,15.2,21.8,,00.0,0646.5,30.8
2021-01-25T13:37:00Z,00000200,01000000,-000.04,0000.24,-000.08,-000.36,0000.15,0000.08,0000.73,0000.32,0000.49,15.2,21.9,,00.0,0646.5,30.8
2021-01-25T13:38:00Z,00000200,01000000,0000.70,-000.10,0000.07,-000.25,-000.09,0000.32,0000.11,0000.39,0000.14,15.2,21.9,,00.0,0646.5,30.8
2021-01-25T13:39:00Z,00000200,01000000,0000.17,-000.02,-000.22,0000.04,0000.14,0000.11,-000.37,-000.43,-000.41,15.2,21.9,,00.0,0646.8,30.8
2021-01-25T13:40:00Z,00000200,01000000,0000.30,-000.05,0000.01,-000.04,0000.21,0000.13,-000.85,-000.68,-000.66,15.2,21.9,,00.0,0647.1,30.8
2021-01-25T13:41:00Z,00000200,01000000,0000.27,0000.10,-000.23,-000.04,0000.32,0000.15,-000.83,-001.20,-000.47,15.2,21.9,,00.0,0646.9,30.8
2021-01-25T13:42:00Z,00000200,01000000,-000.28,0000.23,-000.37,-000.19,0000.28,0000.00,-000.39,0000.23,0000.01,15.2,21.8,,00.0,0646.8,30.8
2021-01-25T13:43:00Z,00000200,01000000,0000.10,-000.09,0000.08,0000.25,0000.34,0000.11,0000.55,0000.27,0000.06,15.2,21.9,,00.0,0646.7,30.8
2021-01-25T13:44:00Z,00000200,01000000,0000.40,-000.15,-000.24,0000.07,-000.04,-000.18,0000.58,0000.92,0000.68,15.2,21.9,,00.0,0646.6,30.8
2021-01-25T13:45:00Z,00000200,01000000,-000.19,0000.25,-000.17,-000.37,0000.08,-000.04,0000.93,0000.76,0000.36,15.2,21.9,,00.0,0646.5,30.8
2021-01-25T13:46:00Z,00000200,01000000,0000.06,0000.11,0000.12,-000.20,-000.03,-000.15,0000.91,0000.81,0000.78,15.2,21.9,,00.0,0646.4,30.8
2021-01-25T13:47:00Z,00000200,01000000,0000.13,0000.03,-000.05,-000.63,0000.20,0000.14,0000.64,0000.06,0000.25,15.2,21.9,,00.0,0646.3,30.8
2021-01-25T13:48:00Z,00000200,01000000,-000.03,0000.02,-000.19,-000.12,0000.28,0000.09,0000.54,0000.57,0000.06,15.2,21.9,,00.0,0646.3,30.8
2021-01-25T13:49:00Z,00000200,01000000,-000.00,-000.08,-000.24,-000.53,0000.09,0000.08,0000.01,0000.12,0000.28,15.3,21.9,,00.0,0646.3,30.8
2021-01-25T13:50:00Z,00000200,01000000,-000.14,-000.03,0000.12,0000.05,0000.06,0000.04,0000.34,0000.37,0000.37,15.3,21.9,,00.0,0646.3,30.8
2021-01-25T13:51:00Z,00000200,01000000,0000.99,0000.15,0000.13,0000.03,0000.20,0000.12,-000.26,-000.18,-000.56,15.3,21.9,,00.0,0646.3,30.8
2021-01-25T13:52:00Z,00000200,01000000,0000.05,0000.29,-000.22,0000.26,0000.09,0000.12,0000.19,0000.17,0000.32,15.3,21.9,,00.0,0646.3,30.8
2021-01-25T13:53:00Z,00000200,01000000,0000.04,0000.06,-000.18,-000.09,0000.15,0000.00,0000.27,0000.23,0000.29,15.3,21.9,,00.0,0646.3,30.8
2021-01-25T13:54:00Z,00000200,01000000,0000.80,0000.32,0000.03,-000.01,0000.11,0000.27,-000.10,-000.04,-000.22,15.3,21.9,,00.0,0646.4,30.8
2021-01-25T13:55:00Z,00000200,01000000,-000.28,-000.16,-000.06,0000.05,0000.29,0000.06,0000.10,-000.01,-000.04,15.3,21.9,,00.0,0646.3,30.8
2021-01-25T13:56:00Z,00000200,01000000,0000.39,0000.05,-000.09,-000.24,0000.17,0000.18,-000.06,-000.07,0000.03,15.3,21.9,,00.0,0646.3,30.8
2021-01-25T13:57:00Z,00000200,41000000,,,,,,,-001.07,-000.92,-000.54,15.3,21.9,,00.0,0646.4,30.8
2021-01-25T13:58:00Z,00000200,61000000,,,,,,,0000.04,0000.05,-000.20,14.8,22.1,,00.0,0645.4,30.8
2021-01-25T13:59:00Z,00000200,21000000,,,,,,,-000.08,0000.19,0000.13,14.8,22.2,,00.0,0645.4,30.8
